NV6B Weather Reports


Display with metric or nautical units.
time (UTC)temp
F
wind
direction
speed
MPH
gust
MPH
rain 1hr
in
rain 24hr
in
rain mn
in
humidity
%
barometer
mb
20260904234546 58 329 1.0 3.0 0.00 0.29 0.18 62 1018.1
20260904233545 58 329 1.0 3.0 0.00 0.29 0.18 62 1018.1
20260904232545 58 329 0.0 4.0 0.00 0.29 0.18 64 1017.9
20260904231545 58 16 3.0 4.0 0.00 0.29 0.18 68 1018.0
20260904230605 57 16 3.0 3.0 0.00 0.29 0.18 70 1018.3
20260904225545 56 16 3.0 4.0 0.00 0.29 0.18 69 1018.4
20260904224545 56 16 1.0 5.0 0.01 0.29 0.18 70 1018.4
20260904223545 56 74 2.0 3.0 0.01 0.29 0.18 72 1018.4
20260904222545 54 80 2.0 3.0 0.01 0.29 0.18 77 1018.4
20260904221545 54 81 0.0 3.0 0.02 0.29 0.18 75 1018.5
20260904220544 53 81 1.0 3.0 0.02 0.29 0.18 76 1018.6
20260904215545 53 81 0.0 2.0 0.03 0.29 0.18 77 1018.7
20260904214605 53 81 2.0 2.0 0.03 0.29 0.18 78 1018.8
20260904213545 53 81 1.0 3.0 0.02 0.28 0.17 77 1018.7
20260904212545 53 81 1.0 3.0 0.02 0.28 0.17 78 1018.5
20260904211544 53 81 0.0 3.0 0.03 0.28 0.17 78 1018.6
20260904210544 53 81 0.0 3.0 0.02 0.27 0.16 76 1018.5
20260904205544 54 81 3.0 3.0 0.02 0.27 0.16 75 1018.3
20260904204544 54 81 2.0 5.0 0.01 0.26 0.15 75 1018.5
20260904203544 54 81 3.0 3.0 0.01 0.26 0.15 74 1018.6
20260904202544 54 81 1.0 3.0 0.01 0.26 0.15 73 1018.7
20260904201544 55 73 3.0 6.0 0.01 0.26 0.15 72 1018.1
20260904200544 55 39 3.0 4.0 0.00 0.25 0.14 67 1018.2
20260904195544 55 35 4.0 7.0 0.00 0.25 0.14 69 1018.1
20260904142540 46 3 0.0 3.0 0.00 0.25 0.14 87 1017.0
20260904141540 45 3 2.0 3.0 0.00 0.25 0.14 87 1016.9
20260904140540 45 3 0.0 0.0 0.00 0.25 0.14 87 1016.5
20260904135541 45 3 0.0 0.0 0.00 0.25 0.14 87 1016.5
20260904112539 46 355 2.0 4.0 0.00 0.25 0.14 86 1015.4
20260904111539 46 355 1.0 6.0 0.00 0.25 0.14 86 1015.3
20260904110539 46 346 6.0 6.0 0.00 0.25 0.14 86 1015.2
20260904105539 46 334 2.0 4.0 0.00 0.25 0.14 86 1015.2
20260904104559 46 334 1.0 3.0 0.00 0.25 0.14 86 1015.1
20260904103538 46 303 3.0 7.0 0.00 0.26 0.14 86 1015.2
20260904102538 46 312 3.0 4.0 0.01 0.26 0.14 87 1015.2
20260904101539 46 314 3.0 6.0 0.01 0.26 0.14 87 1014.9
20260904071536 46 312 1.0 7.0 0.11 0.30 0.11 86 1014.1
20260904070536 46 312 1.0 7.0 0.10 0.29 0.10 85 1013.9
20260904065536 46 316 3.0 4.0 0.13 0.28 0.09 85 1014.1
20260904064536 46 316 1.0 5.0 0.14 0.28 0.09 85 1014.2
20260904063536 46 316 3.0 5.0 0.13 0.27 0.08 85 1014.3
20260904062537 46 307 2.0 8.0 0.12 0.25 0.06 84 1014.4
20260904033554 48 298 8.0 17.0 0.00 0.08 0.08 70 1012.5
20260904032534 49 284 7.0 24.0 0.00 0.08 0.08 69 1011.8
20260904031534 51 301 10.0 20.0 0.00 0.08 0.08 65 1011.5
20260904030534 52 296 13.0 18.0 0.00 0.08 0.08 67 1011.6
20260904025534 52 293 10.0 18.0 0.00 0.08 0.08 67 1010.7
20260904024534 53 276 7.0 26.0 0.00 0.08 0.08 65 1010.3
20260904023534 55 324 10.0 16.0 0.00 0.08 0.08 67 1010.0
20260904022534 57 299 11.0 17.0 0.00 0.08 0.08 67 1009.4
20260904021554 58 240 6.0 14.0 0.00 0.08 0.08 67 1009.3
20260904020534 59 314 10.0 10.0 0.00 0.08 0.08 67 1008.8
20260904015534 60 310 4.0 12.0 0.00 0.08 0.08 66 1008.7
20260904014533 60 272 7.0 14.0 0.00 0.08 0.08 63 1008.4
20260904013533 62 315 10.0 10.0 0.00 0.08 0.08 62 1008.3
20260904012533 62 295 9.0 11.0 0.00 0.08 0.08 63 1008.2
20260904011533 63 319 7.0 10.0 0.00 0.08 0.08 64 1007.9
20260904010533 64 284 3.0 8.0 0.00 0.08 0.08 63 1007.9
20260904005533 64 298 5.0 6.0 0.00 0.08 0.08 63 1008.0
20260904004533 64 275 3.0 9.0 0.00 0.08 0.08 62 1007.9
20260904003533 65 281 3.0 9.0 0.00 0.08 0.08 61 1007.9
20260904002533 66 277 3.0 9.0 0.00 0.08 0.08 60 1008.3